[[{"header":{"parameterUnit":"m.s-1","parameterCategory":1,"la1":30.2992,"la2":30.254,"lo1":-89.0895,"lo2":-89.0443,"dy":0.0025,"dx":0.0025,"nx":19,"ny":19,"refTime":"2026-05-06T09:00:00:Z","depth":0,"parameterNumber":2,"parameterNumberName":"U-component_of_WINDS"},"data":[0,0,0,0.2993,0.2993,0.296,0.2959,0.2926,0.2926,0,0,0,0,0,0,0,0,0,0,0,0.301,0.301,0.2993,0.2993,0.296,0.2959,0.2926,0.2926,0,0,0,0,0,0,0,0,0,0,0,0.301,0.301,0.301,0.2993,0.296,0.2959,0.2926,0.2948,0,0,0,0,0,0,0,0,0,0,0.2978,0.3,0.301,0.301,0.2993,0.296,0.2959,0.2949,0.2946,0.2945,0,0.2946,0,0.2936,0.2924,0.2924,0,0,0,0.2988,0.3002,0.2987,0.301,0.2992,0.296,0.2973,0.2947,0.2945,0.2942,0.2946,0.2944,0.2935,0.2924,0.2924,0.2934,0.2934,0,0,0.299,0.3007,0.2989,0.2986,0.2992,0.2974,0.2972,0.2945,0.295,0.2946,0.2943,0.2934,0.2924,0.2924,0.2933,0.2934,0,0,0,0.2998,0.3008,0.2994,0.2987,0.2981,0.2974,0.2971,0.2951,0.2945,0.2943,0.2934,0.2924,0.2923,0.2933,0.2934,0.2963,0,0,0,0.2999,0.3013,0.2995,0.3005,0.2981,0.2966,0.2978,0.2947,0.2944,0.2934,0.2924,0.2923,0.2933,0.2933,0.2962,0.2975,0,0,0,0.301,0.3014,0.3012,0.3006,0.2993,0.2966,0.2958,0.2946,0.2939,0.2924,0.2923,0.2933,0.2933,0.2961,0.2972,0.2982,0,0,0,0.3025,0.3039,0.3013,0.3025,0.2993,0.2985,0.2958,0.2951,0.2942,0.2923,0.2933,0.2933,0.296,0.2971,0.298,0.2992,0.2999,0,0,0.3052,0.3043,0.3049,0.3024,0.3025,0.2989,0.2994,0.2969,0.2952,0.294,0.294,0.2962,0.2972,0.2981,0.3032,0.3037,0,0,0,0.3063,0.3067,0.3064,0.3056,0.3038,0.3023,0.2996,0.2986,0.2976,0.295,0.2968,0.2973,0.2978,0.2983,0.2987,0.299,0.2937,0.2937,0.2936,0.3126,0.3103,0.311,0.3083,0.3076,0.3047,0.3039,0.3021,0.3001,0.3005,0.3002,0.3035,0.3042,0.3045,0.3048,0.3007,0.3007,0.3007,0.3007,0.3162,0.3164,0.3136,0.3133,0.3108,0.3105,0.3078,0.3063,0.3056,0.3036,0.3039,0.302,0.3052,0.3053,0.3009,0.3009,0.3008,0.3008,0.3008,0.32,0.3197,0.3186,0.3172,0.3163,0.3135,0.3129,0.3107,0.3086,0.3089,0.3082,0.3082,0.3078,0.3087,0.3088,0.3088,0.3088,0.3088,0.3088,0.3244,0.323,0.3228,0.321,0.3201,0.3187,0.3158,0.3149,0.3133,0.3117,0.3117,0.3095,0.3059,0.3051,0.309,0.3089,0.3089,0.3089,0.3089,0.3289,0.3275,0.3272,0.3264,0.3239,0.3232,0.3204,0.3187,0.3176,0.3173,0.3151,0.3128,0.3117,0.3113,0.3105,0.3156,0.3156,0.3156,0.3156,0.332,0.3312,0.3304,0.3292,0.3278,0.3252,0.3248,0.3225,0.3199,0.3191,0.318,0.3168,0.3166,0.3156,0.3151,0.3144,0.3203,0.3203,0.3203,0.3346,0.3336,0.3337,0.3312,0.3291,0.3273,0.3269,0.3255,0.3223,0.3204,0.3183,0.3181,0.3162,0.3157,0.3138,0.3131,0.3117,0,0]},{"header":{"parameterUnit":"m.s-1","parameterCategory":1,"la1":30.2992,"la2":30.254,"lo1":-89.0895,"lo2":-89.0443,"dy":0.0025,"dx":0.0025,"nx":19,"ny":19,"refTime":"2026-05-06T09:00:00:Z","depth":0,"parameterNumber":3,"parameterNumberName":"V-component_of_WINDS"},"data":[0,0,0,6.1338,6.1341,6.1526,6.1526,6.176,6.1762,0,0,0,0,0,0,0,0,0,0,0,6.1285,6.1287,6.1337,6.1342,6.1526,6.1526,6.176,6.1762,0,0,0,0,0,0,0,0,0,0,0,6.1284,6.1286,6.1289,6.1343,6.1525,6.1526,6.1759,6.162,0,0,0,0,0,0,0,0,0,0,6.1442,6.1397,6.1286,6.1289,6.1344,6.1525,6.1526,6.1614,6.1629,6.1677,0,6.1724,0,6.1747,6.1778,6.1779,0,0,0,6.1339,6.1384,6.1431,6.1289,6.1345,6.1525,6.1442,6.1622,6.164,6.1698,6.1727,6.1736,6.1751,6.178,6.1781,6.2073,6.2075,0,0,6.1329,6.1319,6.142,6.1443,6.1418,6.1436,6.1448,6.1633,6.1663,6.1728,6.1741,6.1755,6.1781,6.1783,6.2072,6.2074,0,0,0,6.1302,6.1312,6.1355,6.1433,6.1467,6.1441,6.1455,6.1655,6.167,6.1744,6.1757,6.1783,6.1786,6.207,6.2073,6.2137,0,0,0,6.1295,6.1296,6.1351,6.1346,6.1463,6.1564,6.1473,6.1657,6.1678,6.1756,6.1783,6.1788,6.2069,6.2072,6.2131,6.2168,0,0,0,6.1272,6.1293,6.1321,6.1345,6.1425,6.1561,6.1587,6.1662,6.1687,6.1779,6.1789,6.2068,6.2071,6.2127,6.2161,6.2242,0,0,0,6.1244,6.1375,6.1322,6.1472,6.1423,6.16,6.1585,6.1717,6.1804,6.1784,6.2069,6.2072,6.2125,6.2156,6.2237,6.2309,6.2338,0,0,6.1403,6.1393,6.1482,6.1441,6.1625,6.1572,6.1765,6.1853,6.187,6.2004,6.2011,6.2133,6.216,6.2241,6.2505,6.2528,0,0,0,6.1529,6.1593,6.1644,6.1728,6.1799,6.1863,6.1923,6.1955,6.207,6.1938,6.2185,6.2201,6.2249,6.2284,6.2303,6.2344,6.2088,6.2088,6.2087,6.1739,6.1755,6.1903,6.1941,6.2021,6.2082,6.2148,6.2201,6.2193,6.2251,6.2291,6.2449,6.2489,6.2504,6.2547,6.233,6.233,6.233,6.233,6.1972,6.2065,6.2051,6.219,6.2204,6.232,6.2382,6.2372,6.248,6.242,6.2463,6.2397,6.2529,6.2567,6.2335,6.2334,6.2334,6.2333,6.2333,6.2111,6.2158,6.2197,6.2318,6.2409,6.2441,6.2546,6.2555,6.2564,6.2607,6.2649,6.2648,6.2648,6.2626,6.2627,6.2627,6.2628,6.2628,6.2629,6.2241,6.2282,6.237,6.2457,6.251,6.2582,6.2643,6.2696,6.2756,6.2754,6.2754,6.2739,6.254,6.2489,6.2637,6.2636,6.2635,6.2634,6.2633,6.2472,6.2421,6.2558,6.2612,6.2713,6.2802,6.2812,6.2918,6.2962,6.3013,6.2988,6.284,6.283,6.2814,6.2773,6.2985,6.2985,6.2985,6.2985,6.2589,6.2585,6.2727,6.2812,6.2897,6.292,6.3071,6.3118,6.3159,6.3186,6.3157,6.3102,6.3086,6.3086,6.3064,6.3025,6.3298,6.3298,6.3298,6.2732,6.2736,6.2865,6.2906,6.2985,6.3051,6.3193,6.329,6.3325,6.3311,6.3208,6.3195,6.3107,6.3078,6.3062,6.3029,6.2958,0,0]}]]